Location: Maccacari
(45.1333°N, 11.1333°E)
Time: 18:43:50
(UTC+00:00)

USA 234 - Pass Details

Date: 23 January 2021
Orbit: 1100 x 1107 km, 123.0° (Epoch: 01 March)

Event Time Altitude Azimuth Distance (km) Brightness Sun altitude
Exits shadow 18:14:01 30° 48° (NE) 1,867 4.0 -21.6°
Maximum altitude 18:15:59 36° 14° (NNE) 1,674 4.0 -21.9°
Drops below altitude 10° 18:21:49 10° 311° (NW) 2,967 6.1 -23.0°
Sets 18:24:30 0° 303° (WNW) 3,927 7.0 -23.4°
